owner,sensor,date,latitude,longitude,vertical_datum,sea_water_practical_salinity,qcFlag 
NERRS,ioos:station:NOAA.NERRS:apaebwq:1,2014-10-01T00:45:00Z,29.7858,-84.8752,8.6,7.7,1111122 
NERRS,ioos:station:NOAA.NERRS:apaebwq:1,2014-10-01T01:45:00Z,29.7858,-84.8752,7.3,7.8,1111122 
NERRS,ioos:station:NOAA.NERRS:apaebwq:1,2014-10-01T02:45:00Z,29.7858,-84.8752,6.7,7.7,1111122 
NERRS,ioos:station:NOAA.NERRS:apaebwq:1,2014-10-01T03:45:00Z,29.7858,-84.8752,9.2,7.6,1111122 
NERRS,ioos:station:NOAA.NERRS:apaebwq:1,2014-10-01T04:45:00Z,29.7858,-84.8752,9.0,7.6,1111122 
NERRS,ioos:station:NOAA.NERRS:apaebwq:1,2014-10-01T06:45:00Z,29.7858,-84.8752,6.3,7.6,1111122 
NERRS,ioos:station:NOAA.NERRS:apaebwq:1,2014-10-01T07:45:00Z,29.7858,-84.8752,8.5,7.6,1111122 
NERRS,ioos:station:NOAA.NERRS:apaebwq:1,2014-10-01T08:45:00Z,29.7858,-84.8752,8.1,7.6,1111122 
NERRS,ioos:station:NOAA.NERRS:apaebwq:1,2014-10-01T09:45:00Z,29.7858,-84.8752,8.0,7.7,1111122 
NERRS,ioos:station:NOAA.NERRS:apaebwq:1,2014-10-01T10:45:00Z,29.7858,-84.8752,9.0,7.7,1111122 
NERRS,ioos:station:NOAA.NERRS:apaebwq:1,2014-10-01T11:45:00Z,29.7858,-84.8752,9.8,7.7,1111122 
NERRS,ioos:station:NOAA.NERRS:apaebwq:1,2014-10-01T13:45:00Z,29.7858,-84.8752,9.3,7.5,1111122 
NERRS,ioos:station:NOAA.NERRS:apaebwq:1,2014-10-01T14:45:00Z,29.7858,-84.8752,15.8,7.6,1111122 
NERRS,ioos:station:NOAA.NERRS:apaebwq:1,2014-10-01T15:45:00Z,29.7858,-84.8752,9.4,7.6,1111122 
NERRS,ioos:station:NOAA.NERRS:apaebwq:1,2014-10-01T16:45:00Z,29.7858,-84.8752,12.4,7.6,1111122 
NERRS,ioos:station:NOAA.NERRS:apaebwq:1,2014-10-01T17:45:00Z,29.7858,-84.8752,13.2,7.6,1111122 
NERRS,ioos:station:NOAA.NERRS:apaebwq:1,2014-10-01T18:45:00Z,29.7858,-84.8752,18.4,7.5,1111122 
NERRS,ioos:station:NOAA.NERRS:apaebwq:1,2014-10-01T19:45:00Z,29.7858,-84.8752,12.2,7.5,1111122 
NERRS,ioos:station:NOAA.NERRS:apaebwq:1,2014-10-01T20:45:00Z,29.7858,-84.8752,12.8,7.6,1111122 
NERRS,ioos:station:NOAA.NERRS:apaebwq:1,2014-10-01T21:45:00Z,29.7858,-84.8752,14.1,7.6,1111122 
NERRS,ioos:station:NOAA.NERRS:apaebwq:1,2014-10-01T22:45:00Z,29.7858,-84.8752,13.5,7.7,1111122 
NERRS,ioos:station:NOAA.NERRS:apaebwq:1,2014-10-01T23:45:00Z,29.7858,-84.8752,16.4,7.8,1111122 
NERRS,ioos:station:NOAA.NERRS:apaebwq:1,2014-10-02T02:45:00Z,29.7858,-84.8752,28.3,7.8,1111122 
NERRS,ioos:station:NOAA.NERRS:apaebwq:1,2014-10-02T03:45:00Z,29.7858,-84.8752,8.6,7.7,1111122 
NERRS,ioos:station:NOAA.NERRS:apaebwq:1,2014-10-02T04:45:00Z,29.7858,-84.8752,10.4,7.8,1111122 
NERRS,ioos:station:NOAA.NERRS:apaebwq:1,2014-10-02T05:45:00Z,29.7858,-84.8752,9.0,7.8,1111122 
NERRS,ioos:station:NOAA.NERRS:apaebwq:1,2014-10-02T06:45:00Z,29.7858,-84.8752,8.1,7.7,1111122 
NERRS,ioos:station:NOAA.NERRS:apaebwq:1,2014-10-02T07:45:00Z,29.7858,-84.8752,17.3,7.7,1111122 
NERRS,ioos:station:NOAA.NERRS:apaebwq:1,2014-10-02T08:45:00Z,29.7858,-84.8752,5.3,7.7,1111122 
NERRS,ioos:station:NOAA.NERRS:apaebwq:1,2014-10-02T09:45:00Z,29.7858,-84.8752,5.9,7.7,1111122 
NERRS,ioos:station:NOAA.NERRS:apaebwq:1,2014-10-02T10:45:00Z,29.7858,-84.8752,5.5,7.7,1111122 
NERRS,ioos:station:NOAA.NERRS:apaebwq:1,2014-10-02T11:45:00Z,29.7858,-84.8752,10.8,7.7,1111122 
NERRS,ioos:station:NOAA.NERRS:apaebwq:1,2014-10-02T12:45:00Z,29.7858,-84.8752,13.1,7.7,1111122 
NERRS,ioos:station:NOAA.NERRS:apaebwq:1,2014-10-02T13:45:00Z,29.7858,-84.8752,8.1,7.6,1111122 
NERRS,ioos:station:NOAA.NERRS:apaebwq:1,2014-10-02T14:45:00Z,29.7858,-84.8752,15.9,7.6,1111122 
NERRS,ioos:station:NOAA.NERRS:apaebwq:1,2014-10-02T15:45:00Z,29.7858,-84.8752,11.0,7.6,1111122 
NERRS,ioos:station:NOAA.NERRS:apaebwq:1,2014-10-02T16:45:00Z,29.7858,-84.8752,17.1,7.6,1111122 
NERRS,ioos:station:NOAA.NERRS:apaebwq:1,2014-10-02T17:45:00Z,29.7858,-84.8752,15.3,7.6,1111122 
NERRS,ioos:station:NOAA.NERRS:apaebwq:1,2014-10-02T18:45:00Z,29.7858,-84.8752,26.7,7.6,1111122 
NERRS,ioos:station:NOAA.NERRS:apaebwq:1,2014-10-02T19:45:00Z,29.7858,-84.8752,-99.0,7.6,1111122 
NERRS,ioos:station:NOAA.NERRS:apaebwq:1,2014-10-02T20:45:00Z,29.7858,-84.8752,-99.0,7.6,1111122 
NERRS,ioos:station:NOAA.NERRS:apaebwq:1,2014-10-02T21:45:00Z,29.7858,-84.8752,-99.0,7.6,1111122 
NERRS,ioos:station:NOAA.NERRS:apaebwq:1,2014-10-02T22:45:00Z,29.7858,-84.8752,-99.0,7.5,1111122 
NERRS,ioos:station:NOAA.NERRS:apaebwq:1,2014-10-02T23:45:00Z,29.7858,-84.8752,22.5,7.8,1111122 
NERRS,ioos:station:NOAA.NERRS:apaebwq:1,2014-10-03T00:45:00Z,29.7858,-84.8752,19.9,7.8,1111122 
NERRS,ioos:station:NOAA.NERRS:apaebwq:1,2014-10-03T01:45:00Z,29.7858,-84.8752,11.1,7.9,1111122 
NERRS,ioos:station:NOAA.NERRS:apaebwq:1,2014-10-03T02:45:00Z,29.7858,-84.8752,10.4,7.9,1111122 
NERRS,ioos:station:NOAA.NERRS:apaebwq:1,2014-10-03T03:45:00Z,29.7858,-84.8752,8.3,7.8,1111122 
NERRS,ioos:station:NOAA.NERRS:apaebwq:1,2014-10-03T04:45:00Z,29.7858,-84.8752,7.6,7.7,1111122 
NERRS,ioos:station:NOAA.NERRS:apaebwq:1,2014-10-03T05:45:00Z,29.7858,-84.8752,9.9,7.8,1111122 
NERRS,ioos:station:NOAA.NERRS:apaebwq:1,2014-10-03T06:45:00Z,29.7858,-84.8752,9.2,7.8,1111122 
NERRS,ioos:station:NOAA.NERRS:apaebwq:1,2014-10-03T07:45:00Z,29.7858,-84.8752,10.3,7.7,1111122 
NERRS,ioos:station:NOAA.NERRS:apaebwq:1,2014-10-03T08:45:00Z,29.7858,-84.8752,12.3,7.5,1111122 
NERRS,ioos:station:NOAA.NERRS:apaebwq:1,2014-10-03T09:45:00Z,29.7858,-84.8752,7.5,7.5,1111122 
NERRS,ioos:station:NOAA.NERRS:apaebwq:1,2014-10-03T10:45:00Z,29.7858,-84.8752,7.5,7.5,1111122 
NERRS,ioos:station:NOAA.NERRS:apaebwq:1,2014-10-03T11:45:00Z,29.7858,-84.8752,12.2,7.7,1111122 
NERRS,ioos:station:NOAA.NERRS:apaebwq:1,2014-10-03T12:45:00Z,29.7858,-84.8752,28.3,7.5,1111122 
NERRS,ioos:station:NOAA.NERRS:apaebwq:1,2014-10-03T13:45:00Z,29.7858,-84.8752,21.8,7.5,1111122 
NERRS,ioos:station:NOAA.NERRS:apaebwq:1,2014-10-03T14:45:00Z,29.7858,-84.8752,14.9,7.5,1111122 
NERRS,ioos:station:NOAA.NERRS:apaebwq:1,2014-10-03T15:45:00Z,29.7858,-84.8752,20.6,7.7,1111122 
NERRS,ioos:station:NOAA.NERRS:apaebwq:1,2014-10-03T16:45:00Z,29.7858,-84.8752,20.9,7.7,1111122 
NERRS,ioos:station:NOAA.NERRS:apaebwq:1,2014-10-03T17:45:00Z,29.7858,-84.8752,29.0,7.8,1111122 
NERRS,ioos:station:NOAA.NERRS:apaebwq:1,2014-10-03T18:45:00Z,29.7858,-84.8752,23.5,7.8,1111122 
NERRS,ioos:station:NOAA.NERRS:apaebwq:1,2014-10-03T19:45:00Z,29.7858,-84.8752,24.7,7.7,1111122 
NERRS,ioos:station:NOAA.NERRS:apaebwq:1,2014-10-03T20:45:00Z,29.7858,-84.8752,-99.0,7.7,1111122 
NERRS,ioos:station:NOAA.NERRS:apaebwq:1,2014-10-03T21:45:00Z,29.7858,-84.8752,34.5,7.7,1111122 
NERRS,ioos:station:NOAA.NERRS:apaebwq:1,2014-10-03T22:45:00Z,29.7858,-84.8752,20.1,7.7,1111122 
NERRS,ioos:station:NOAA.NERRS:apaebwq:1,2014-10-03T23:45:00Z,29.7858,-84.8752,25.0,7.7,1111122 
NERRS,ioos:station:NOAA.NERRS:apaebwq:1,2014-10-04T00:45:00Z,29.7858,-84.8752,16.8,7.6,1111122 
NERRS,ioos:station:NOAA.NERRS:apaebwq:1,2014-10-04T01:45:00Z,29.7858,-84.8752,17.3,7.7,1111122 
NERRS,ioos:station:NOAA.NERRS:apaebwq:1,2014-10-04T02:45:00Z,29.7858,-84.8752,9.1,7.7,1111122 
NERRS,ioos:station:NOAA.NERRS:apaebwq:1,2014-10-04T03:45:00Z,29.7858,-84.8752,30.3,7.7,1111122 
NERRS,ioos:station:NOAA.NERRS:apaebwq:1,2014-10-04T05:45:00Z,29.7858,-84.8752,9.6,7.8,1111122 
NERRS,ioos:station:NOAA.NERRS:apaebwq:1,2014-10-04T06:45:00Z,29.7858,-84.8752,9.6,7.7,1111122 
NERRS,ioos:station:NOAA.NERRS:apaebwq:1,2014-10-04T07:45:00Z,29.7858,-84.8752,6.3,7.6,1111122 
NERRS,ioos:station:NOAA.NERRS:apaebwq:1,2014-10-04T08:45:00Z,29.7858,-84.8752,11.0,7.3,1111122 
NERRS,ioos:station:NOAA.NERRS:apaebwq:1,2014-10-04T09:45:00Z,29.7858,-84.8752,6.7,7.2,1111122 
NERRS,ioos:station:NOAA.NERRS:apaebwq:1,2014-10-04T10:45:00Z,29.7858,-84.8752,6.7,7.1,1111122 
NERRS,ioos:station:NOAA.NERRS:apaebwq:1,2014-10-04T11:45:00Z,29.7858,-84.8752,7.9,7.6,1111122 
NERRS,ioos:station:NOAA.NERRS:apaebwq:1,2014-10-04T12:45:00Z,29.7858,-84.8752,7.6,7.5,1111122 
NERRS,ioos:station:NOAA.NERRS:apaebwq:1,2014-10-04T13:45:00Z,29.7858,-84.8752,9.6,7.7,1111122 
NERRS,ioos:station:NOAA.NERRS:apaebwq:1,2014-10-04T15:45:00Z,29.7858,-84.8752,14.9,7.7,1111122 
NERRS,ioos:station:NOAA.NERRS:apaebwq:1,2014-10-04T16:45:00Z,29.7858,-84.8752,8.7,7.6,1111122 
NERRS,ioos:station:NOAA.NERRS:apaebwq:1,2014-10-04T17:45:00Z,29.7858,-84.8752,7.9,7.5,1111122 
NERRS,ioos:station:NOAA.NERRS:apaebwq:1,2014-10-04T18:45:00Z,29.7858,-84.8752,40.9,7.6,1111122 
NERRS,ioos:station:NOAA.NERRS:apaebwq:1,2014-10-04T19:45:00Z,29.7858,-84.8752,9.5,7.9,1111122 
NERRS,ioos:station:NOAA.NERRS:apaebwq:1,2014-10-04T20:45:00Z,29.7858,-84.8752,10.7,7.8,1111122 
NERRS,ioos:station:NOAA.NERRS:apaebwq:1,2014-10-04T21:45:00Z,29.7858,-84.8752,6.2,7.7,1111122 
NERRS,ioos:station:NOAA.NERRS:apaebwq:1,2014-10-04T22:45:00Z,29.7858,-84.8752,8.4,7.9,1111122 
NERRS,ioos:station:NOAA.NERRS:apaebwq:1,2014-10-04T23:45:00Z,29.7858,-84.8752,8.5,7.9,1111122 
NERRS,ioos:station:NOAA.NERRS:apaebwq:1,2014-10-05T00:45:00Z,29.7858,-84.8752,8.7,7.8,1111122 
NERRS,ioos:station:NOAA.NERRS:apaebwq:1,2014-10-05T01:45:00Z,29.7858,-84.8752,8.2,7.8,1111122 
NERRS,ioos:station:NOAA.NERRS:apaebwq:1,2014-10-05T02:45:00Z,29.7858,-84.8752,19.4,7.9,1111122 
NERRS,ioos:station:NOAA.NERRS:apaebwq:1,2014-10-05T03:45:00Z,29.7858,-84.8752,10.7,7.8,1111122 
NERRS,ioos:station:NOAA.NERRS:apaebwq:1,2014-10-05T04:45:00Z,29.7858,-84.8752,8.5,7.8,1111122 
NERRS,ioos:station:NOAA.NERRS:apaebwq:1,2014-10-05T06:45:00Z,29.7858,-84.8752,4.4,7.6,1111122 
NERRS,ioos:station:NOAA.NERRS:apaebwq:1,2014-10-05T07:45:00Z,29.7858,-84.8752,4.8,7.6,1111122 
NERRS,ioos:station:NOAA.NERRS:apaebwq:1,2014-10-05T08:45:00Z,29.7858,-84.8752,7.3,7.7,1111122 
NERRS,ioos:station:NOAA.NERRS:apaebwq:1,2014-10-05T09:45:00Z,29.7858,-84.8752,5.4,7.8,1111122 
NERRS,ioos:station:NOAA.NERRS:apaebwq:1,2014-10-05T10:45:00Z,29.7858,-84.8752,6.3,7.8,1111122 
NERRS,ioos:station:NOAA.NERRS:apaebwq:1,2014-10-05T11:45:00Z,29.7858,-84.8752,4.6,7.5,1111122 
NERRS,ioos:station:NOAA.NERRS:apaebwq:1,2014-10-05T12:45:00Z,29.7858,-84.8752,6.2,7.5,1111122 
NERRS,ioos:station:NOAA.NERRS:apaebwq:1,2014-10-05T13:45:00Z,29.7858,-84.8752,9.7,7.8,1111122 
NERRS,ioos:station:NOAA.NERRS:apaebwq:1,2014-10-05T14:45:00Z,29.7858,-84.8752,32.4,7.7,1111122 
NERRS,ioos:station:NOAA.NERRS:apaebwq:1,2014-10-05T15:45:00Z,29.7858,-84.8752,17.0,7.8,1111122 
NERRS,ioos:station:NOAA.NERRS:apaebwq:1,2014-10-05T16:45:00Z,29.7858,-84.8752,9.7,7.8,1111122 
NERRS,ioos:station:NOAA.NERRS:apaebwq:1,2014-10-05T17:45:00Z,29.7858,-84.8752,8.5,7.7,1111122 
NERRS,ioos:station:NOAA.NERRS:apaebwq:1,2014-10-05T18:45:00Z,29.7858,-84.8752,13.9,7.7,1111122 
NERRS,ioos:station:NOAA.NERRS:apaebwq:1,2014-10-05T19:45:00Z,29.7858,-84.8752,10.1,7.6,1111122 
NERRS,ioos:station:NOAA.NERRS:apaebwq:1,2014-10-05T20:45:00Z,29.7858,-84.8752,6.8,7.6,1111122 
NERRS,ioos:station:NOAA.NERRS:apaebwq:1,2014-10-05T21:45:00Z,29.7858,-84.8752,11.3,8.0,1111122 
NERRS,ioos:station:NOAA.NERRS:apaebwq:1,2014-10-05T22:45:00Z,29.7858,-84.8752,13.5,8.1,1111122 
NERRS,ioos:station:NOAA.NERRS:apaebwq:1,2014-10-06T00:45:00Z,29.7858,-84.8752,8.1,7.9,1111122 
NERRS,ioos:station:NOAA.NERRS:apaebwq:1,2014-10-06T01:45:00Z,29.7858,-84.8752,3.6,7.9,1111122 
NERRS,ioos:station:NOAA.NERRS:apaebwq:1,2014-10-06T02:45:00Z,29.7858,-84.8752,12.9,7.9,1111122 
NERRS,ioos:station:NOAA.NERRS:apaebwq:1,2014-10-06T03:45:00Z,29.7858,-84.8752,10.7,7.9,1111122 
NERRS,ioos:station:NOAA.NERRS:apaebwq:1,2014-10-06T04:45:00Z,29.7858,-84.8752,11.1,8.0,1111122 
NERRS,ioos:station:NOAA.NERRS:apaebwq:1,2014-10-06T05:45:00Z,29.7858,-84.8752,5.1,8.0,1111122 
NERRS,ioos:station:NOAA.NERRS:apaebwq:1,2014-10-06T06:45:00Z,29.7858,-84.8752,5.5,7.9,1111122 
NERRS,ioos:station:NOAA.NERRS:apaebwq:1,2014-10-06T07:45:00Z,29.7858,-84.8752,4.7,7.7,1111122 
NERRS,ioos:station:NOAA.NERRS:apaebwq:1,2014-10-06T08:45:00Z,29.7858,-84.8752,6.7,8.0,1111122 
NERRS,ioos:station:NOAA.NERRS:apaebwq:1,2014-10-06T09:45:00Z,29.7858,-84.8752,5.6,7.9,1111122 
NERRS,ioos:station:NOAA.NERRS:apaebwq:1,2014-10-06T10:45:00Z,29.7858,-84.8752,6.2,7.9,1111122 
NERRS,ioos:station:NOAA.NERRS:apaebwq:1,2014-10-06T11:45:00Z,29.7858,-84.8752,9.2,7.9,1111122 
NERRS,ioos:station:NOAA.NERRS:apaebwq:1,2014-10-06T12:45:00Z,29.7858,-84.8752,5.5,7.8,1111122 
NERRS,ioos:station:NOAA.NERRS:apaebwq:1,2014-10-06T13:45:00Z,29.7858,-84.8752,11.1,7.8,1111122 
NERRS,ioos:station:NOAA.NERRS:apaebwq:1,2014-10-06T14:45:00Z,29.7858,-84.8752,15.4,7.8,1111122 
NERRS,ioos:station:NOAA.NERRS:apaebwq:1,2014-10-06T15:45:00Z,29.7858,-84.8752,24.4,7.8,1111122 
NERRS,ioos:station:NOAA.NERRS:apaebwq:1,2014-10-06T16:45:00Z,29.7858,-84.8752,19.0,7.8,1111122 
NERRS,ioos:station:NOAA.NERRS:apaebwq:1,2014-10-06T17:45:00Z,29.7858,-84.8752,15.8,7.9,1111122 
NERRS,ioos:station:NOAA.NERRS:apaebwq:1,2014-10-06T18:45:00Z,29.7858,-84.8752,8.0,7.9,1111122 
NERRS,ioos:station:NOAA.NERRS:apaebwq:1,2014-10-06T19:45:00Z,29.7858,-84.8752,7.7,7.8,1111122 
NERRS,ioos:station:NOAA.NERRS:apaebwq:1,2014-10-06T20:45:00Z,29.7858,-84.8752,9.0,8.0,1111122 
NERRS,ioos:station:NOAA.NERRS:apaebwq:1,2014-10-06T22:45:00Z,29.7858,-84.8752,9.9,8.0,1111122 
NERRS,ioos:station:NOAA.NERRS:apaebwq:1,2014-10-06T23:45:00Z,29.7858,-84.8752,5.7,8.0,1111122 
NERRS,ioos:station:NOAA.NERRS:apaebwq:1,2014-10-07T00:45:00Z,29.7858,-84.8752,6.7,7.9,1111122 
NERRS,ioos:station:NOAA.NERRS:apaebwq:1,2014-10-07T01:45:00Z,29.7858,-84.8752,4.9,7.8,1111122 
NERRS,ioos:station:NOAA.NERRS:apaebwq:1,2014-10-07T02:45:00Z,29.7858,-84.8752,6.0,7.9,1111122 
NERRS,ioos:station:NOAA.NERRS:apaebwq:1,2014-10-07T03:45:00Z,29.7858,-84.8752,6.8,8.0,1111122 
NERRS,ioos:station:NOAA.NERRS:apaebwq:1,2014-10-07T04:45:00Z,29.7858,-84.8752,8.0,7.9,1111122 
NERRS,ioos:station:NOAA.NERRS:apaebwq:1,2014-10-07T05:45:00Z,29.7858,-84.8752,6.4,8.0,1111122 
NERRS,ioos:station:NOAA.NERRS:apaebwq:1,2014-10-07T06:45:00Z,29.7858,-84.8752,6.6,8.0,1111122 
NERRS,ioos:station:NOAA.NERRS:apaebwq:1,2014-10-07T07:45:00Z,29.7858,-84.8752,6.4,7.9,1111122 
NERRS,ioos:station:NOAA.NERRS:apaebwq:1,2014-10-07T08:45:00Z,29.7858,-84.8752,6.1,7.9,1111122 
NERRS,ioos:station:NOAA.NERRS:apaebwq:1,2014-10-07T09:45:00Z,29.7858,-84.8752,6.3,7.9,1111122 
NERRS,ioos:station:NOAA.NERRS:apaebwq:1,2014-10-07T10:45:00Z,29.7858,-84.8752,5.8,7.9,1111122 
NERRS,ioos:station:NOAA.NERRS:apaebwq:1,2014-10-07T11:45:00Z,29.7858,-84.8752,6.9,7.8,1111122 
NERRS,ioos:station:NOAA.NERRS:apaebwq:1,2014-10-07T12:45:00Z,29.7858,-84.8752,9.4,7.8,1111122 
NERRS,ioos:station:NOAA.NERRS:apaebwq:1,2014-10-07T13:45:00Z,29.7858,-84.8752,1.73,18.4,1111122 
NERRS,ioos:station:NOAA.NERRS:apaebwq:1,2014-10-07T14:45:00Z,29.7858,-84.8752,1.79,18.1,1111122 
NERRS,ioos:station:NOAA.NERRS:apaebwq:1,2014-10-07T15:45:00Z,29.7858,-84.8752,1.89,18.2,1111122 
NERRS,ioos:station:NOAA.NERRS:apaebwq:1,2014-10-07T16:45:00Z,29.7858,-84.8752,2.06,18.0,1111122 
NERRS,ioos:station:NOAA.NERRS:apaebwq:1,2014-10-07T17:45:00Z,29.7858,-84.8752,2.18,17.7,1111122 
NERRS,ioos:station:NOAA.NERRS:apaebwq:1,2014-10-07T18:45:00Z,29.7858,-84.8752,2.26,17.4,1111122 
NERRS,ioos:station:NOAA.NERRS:apaebwq:1,2014-10-07T19:45:00Z,29.7858,-84.8752,2.3,17.3,1111122 
NERRS,ioos:station:NOAA.NERRS:apaebwq:1,2014-10-07T20:45:00Z,29.7858,-84.8752,2.25,17.7,1111122 
NERRS,ioos:station:NOAA.NERRS:apaebwq:1,2014-10-07T21:45:00Z,29.7858,-84.8752,2.16,18.0,1111122 
NERRS,ioos:station:NOAA.NERRS:apaebwq:1,2014-10-07T22:45:00Z,29.7858,-84.8752,2.1,17.8,1111122 
NERRS,ioos:station:NOAA.NERRS:apaebwq:1,2014-10-07T23:45:00Z,29.7858,-84.8752,1.99,17.9,1111122 
NERRS,ioos:station:NOAA.NERRS:apaebwq:1,2014-10-08T00:45:00Z,29.7858,-84.8752,1.9,17.8,1111122 
NERRS,ioos:station:NOAA.NERRS:apaebwq:1,2014-10-08T01:45:00Z,29.7858,-84.8752,1.85,18.0,1111122 
NERRS,ioos:station:NOAA.NERRS:apaebwq:1,2014-10-08T02:45:00Z,29.7858,-84.8752,1.88,18.0,1111122 
NERRS,ioos:station:NOAA.NERRS:apaebwq:1,2014-10-08T03:45:00Z,29.7858,-84.8752,1.96,17.9,1111122 
NERRS,ioos:station:NOAA.NERRS:apaebwq:1,2014-10-08T04:45:00Z,29.7858,-84.8752,2.08,17.8,1111122 
NERRS,ioos:station:NOAA.NERRS:apaebwq:1,2014-10-08T06:45:00Z,29.7858,-84.8752,2.27,17.7,1111122 
NERRS,ioos:station:NOAA.NERRS:apaebwq:1,2014-10-08T07:45:00Z,29.7858,-84.8752,2.29,17.6,1111122 
NERRS,ioos:station:NOAA.NERRS:apaebwq:1,2014-10-08T08:45:00Z,29.7858,-84.8752,2.22,17.6,1111122 
NERRS,ioos:station:NOAA.NERRS:apaebwq:1,2014-10-08T09:45:00Z,29.7858,-84.8752,2.1,17.8,1111122 
NERRS,ioos:station:NOAA.NERRS:apaebwq:1,2014-10-08T10:45:00Z,29.7858,-84.8752,1.98,17.8,1111122 
NERRS,ioos:station:NOAA.NERRS:apaebwq:1,2014-10-08T11:45:00Z,29.7858,-84.8752,1.87,18.0,1111122 
NERRS,ioos:station:NOAA.NERRS:apaebwq:1,2014-10-08T12:45:00Z,29.7858,-84.8752,1.78,18.0,1111122 
NERRS,ioos:station:NOAA.NERRS:apaebwq:1,2014-10-08T13:45:00Z,29.7858,-84.8752,1.71,18.0,1111122 
NERRS,ioos:station:NOAA.NERRS:apaebwq:1,2014-10-08T14:45:00Z,29.7858,-84.8752,1.68,18.2,1111122 
NERRS,ioos:station:NOAA.NERRS:apaebwq:1,2014-10-08T15:45:00Z,29.7858,-84.8752,1.72,18.1,1111122 
NERRS,ioos:station:NOAA.NERRS:apaebwq:1,2014-10-08T16:45:00Z,29.7858,-84.8752,1.85,17.9,1111122 
NERRS,ioos:station:NOAA.NERRS:apaebwq:1,2014-10-08T17:45:00Z,29.7858,-84.8752,2.01,17.9,1111122 
NERRS,ioos:station:NOAA.NERRS:apaebwq:1,2014-10-08T18:45:00Z,29.7858,-84.8752,2.14,17.8,1111122 
NERRS,ioos:station:NOAA.NERRS:apaebwq:1,2014-10-08T20:45:00Z,29.7858,-84.8752,2.26,17.7,1111122 
NERRS,ioos:station:NOAA.NERRS:apaebwq:1,2014-10-08T21:45:00Z,29.7858,-84.8752,2.22,17.6,1111122 
NERRS,ioos:station:NOAA.NERRS:apaebwq:1,2014-10-08T22:45:00Z,29.7858,-84.8752,2.12,17.8,1111122 
NERRS,ioos:station:NOAA.NERRS:apaebwq:1,2014-10-08T23:45:00Z,29.7858,-84.8752,2.01,17.8,1111122 
NERRS,ioos:station:NOAA.NERRS:apaebwq:1,2014-10-09T00:45:00Z,29.7858,-84.8752,1.91,17.9,1111122 
NERRS,ioos:station:NOAA.NERRS:apaebwq:1,2014-10-09T01:45:00Z,29.7858,-84.8752,1.85,17.9,1111122 
NERRS,ioos:station:NOAA.NERRS:apaebwq:1,2014-10-09T02:45:00Z,29.7858,-84.8752,1.82,17.9,1111122 
NERRS,ioos:station:NOAA.NERRS:apaebwq:1,2014-10-09T03:45:00Z,29.7858,-84.8752,1.86,17.9,1111122 
NERRS,ioos:station:NOAA.NERRS:apaebwq:1,2014-10-09T04:45:00Z,29.7858,-84.8752,1.95,17.7,1111122 
NERRS,ioos:station:NOAA.NERRS:apaebwq:1,2014-10-09T05:45:00Z,29.7858,-84.8752,2.15,17.6,1111122 
NERRS,ioos:station:NOAA.NERRS:apaebwq:1,2014-10-09T06:45:00Z,29.7858,-84.8752,2.25,17.5,1111122 
NERRS,ioos:station:NOAA.NERRS:apaebwq:1,2014-10-09T07:45:00Z,29.7858,-84.8752,2.31,17.4,1111122 
NERRS,ioos:station:NOAA.NERRS:apaebwq:1,2014-10-09T08:45:00Z,29.7858,-84.8752,2.29,17.3,1111122 
NERRS,ioos:station:NOAA.NERRS:apaebwq:1,2014-10-09T09:45:00Z,29.7858,-84.8752,2.19,17.4,1111122 
NERRS,ioos:station:NOAA.NERRS:apaebwq:1,2014-10-09T10:45:00Z,29.7858,-84.8752,2.07,17.6,1111122 
NERRS,ioos:station:NOAA.NERRS:apaebwq:1,2014-10-09T11:45:00Z,29.7858,-84.8752,1.94,17.3,1111122 
NERRS,ioos:station:NOAA.NERRS:apaebwq:1,2014-10-09T12:45:00Z,29.7858,-84.8752,1.83,17.4,1111122 
NERRS,ioos:station:NOAA.NERRS:apaebwq:1,2014-10-09T13:45:00Z,29.7858,-84.8752,1.74,17.5,1111122 
NERRS,ioos:station:NOAA.NERRS:apaebwq:1,2014-10-09T14:45:00Z,29.7858,-84.8752,1.67,17.5,1111122 
NERRS,ioos:station:NOAA.NERRS:apaebwq:1,2014-10-09T15:45:00Z,29.7858,-84.8752,1.63,17.4,1111122 
NERRS,ioos:station:NOAA.NERRS:apaebwq:1,2014-10-09T16:45:00Z,29.7858,-84.8752,1.68,17.4,1111122 
NERRS,ioos:station:NOAA.NERRS:apaebwq:1,2014-10-09T17:45:00Z,29.7858,-84.8752,1.83,17.2,1111122 
NERRS,ioos:station:NOAA.NERRS:apaebwq:1,2014-10-09T18:45:00Z,29.7858,-84.8752,2.02,17.2,1111122 
NERRS,ioos:station:NOAA.NERRS:apaebwq:1,2014-10-09T19:45:00Z,29.7858,-84.8752,2.17,17.3,1111122 
NERRS,ioos:station:NOAA.NERRS:apaebwq:1,2014-10-09T20:45:00Z,29.7858,-84.8752,2.27,17.2,1111122 
NERRS,ioos:station:NOAA.NERRS:apaebwq:1,2014-10-09T22:45:00Z,29.7858,-84.8752,2.25,17.1,1111122 
NERRS,ioos:station:NOAA.NERRS:apaebwq:1,2014-10-09T23:45:00Z,29.7858,-84.8752,2.16,17.3,1111122 
NERRS,ioos:station:NOAA.NERRS:apaebwq:1,2014-10-10T02:45:00Z,29.7858,-84.8752,1.96,17.2,1111122 
NERRS,ioos:station:NOAA.NERRS:apaebwq:1,2014-10-10T03:45:00Z,29.7858,-84.8752,1.96,17.2,1111122 
NERRS,ioos:station:NOAA.NERRS:apaebwq:1,2014-10-10T04:45:00Z,29.7858,-84.8752,2.01,17.2,1111122 
NERRS,ioos:station:NOAA.NERRS:apaebwq:1,2014-10-10T05:45:00Z,29.7858,-84.8752,2.11,17.1,1111122 
NERRS,ioos:station:NOAA.NERRS:apaebwq:1,2014-10-10T06:45:00Z,29.7858,-84.8752,2.23,17.1,1111122 
NERRS,ioos:station:NOAA.NERRS:apaebwq:1,2014-10-10T07:45:00Z,29.7858,-84.8752,2.3,17.0,1111122 
NERRS,ioos:station:NOAA.NERRS:apaebwq:1,2014-10-10T08:45:00Z,29.7858,-84.8752,2.32,16.9,1111122 
NERRS,ioos:station:NOAA.NERRS:apaebwq:1,2014-10-10T09:45:00Z,29.7858,-84.8752,2.27,16.9,1111122 
NERRS,ioos:station:NOAA.NERRS:apaebwq:1,2014-10-10T10:45:00Z,29.7858,-84.8752,2.14,16.9,1111122 
NERRS,ioos:station:NOAA.NERRS:apaebwq:1,2014-10-10T11:45:00Z,29.7858,-84.8752,2.02,17.0,1111122 
NERRS,ioos:station:NOAA.NERRS:apaebwq:1,2014-10-10T12:45:00Z,29.7858,-84.8752,1.9,17.2,1111122 
NERRS,ioos:station:NOAA.NERRS:apaebwq:1,2014-10-10T14:45:00Z,29.7858,-84.8752,1.7,17.4,1111122 
NERRS,ioos:station:NOAA.NERRS:apaebwq:1,2014-10-10T16:45:00Z,29.7858,-84.8752,1.63,17.6,1111122 
NERRS,ioos:station:NOAA.NERRS:apaebwq:1,2014-10-10T17:45:00Z,29.7858,-84.8752,1.71,17.5,1111122 
NERRS,ioos:station:NOAA.NERRS:apaebwq:1,2014-10-10T18:45:00Z,29.7858,-84.8752,1.89,17.0,1111122 
NERRS,ioos:station:NOAA.NERRS:apaebwq:1,2014-10-10T19:45:00Z,29.7858,-84.8752,2.06,17.2,1111122 
NERRS,ioos:station:NOAA.NERRS:apaebwq:1,2014-10-10T20:45:00Z,29.7858,-84.8752,2.2,17.4,1111122 
NERRS,ioos:station:NOAA.NERRS:apaebwq:1,2014-10-10T21:45:00Z,29.7858,-84.8752,2.28,17.5,1111122 
NERRS,ioos:station:NOAA.NERRS:apaebwq:1,2014-10-10T22:45:00Z,29.7858,-84.8752,2.31,17.4,1111122 
NERRS,ioos:station:NOAA.NERRS:apaebwq:1,2014-10-10T23:45:00Z,29.7858,-84.8752,2.25,17.6,1111122 
NERRS,ioos:station:NOAA.NERRS:apaebwq:1,2014-10-11T01:45:00Z,29.7858,-84.8752,2.1,17.3,1111122 
NERRS,ioos:station:NOAA.NERRS:apaebwq:1,2014-10-11T02:45:00Z,29.7858,-84.8752,2.04,17.3,1111122 
NERRS,ioos:station:NOAA.NERRS:apaebwq:1,2014-10-11T03:45:00Z,29.7858,-84.8752,2.04,17.2,1111122 
NERRS,ioos:station:NOAA.NERRS:apaebwq:1,2014-10-11T04:45:00Z,29.7858,-84.8752,2.07,17.2,1111122 
NERRS,ioos:station:NOAA.NERRS:apaebwq:1,2014-10-11T05:45:00Z,29.7858,-84.8752,2.14,17.2,1111122 
NERRS,ioos:station:NOAA.NERRS:apaebwq:1,2014-10-11T07:45:00Z,29.7858,-84.8752,2.32,17.4,1111122 
NERRS,ioos:station:NOAA.NERRS:apaebwq:1,2014-10-11T08:45:00Z,29.7858,-84.8752,2.38,17.4,1111122 
NERRS,ioos:station:NOAA.NERRS:apaebwq:1,2014-10-11T09:45:00Z,29.7858,-84.8752,2.38,17.4,1111122 
NERRS,ioos:station:NOAA.NERRS:apaebwq:1,2014-10-11T10:45:00Z,29.7858,-84.8752,2.28,17.4,1111122 
NERRS,ioos:station:NOAA.NERRS:apaebwq:1,2014-10-11T11:45:00Z,29.7858,-84.8752,2.16,17.1,1111122 
NERRS,ioos:station:NOAA.NERRS:apaebwq:1,2014-10-11T12:45:00Z,29.7858,-84.8752,2.04,17.2,1111122 
NERRS,ioos:station:NOAA.NERRS:apaebwq:1,2014-10-11T13:45:00Z,29.7858,-84.8752,1.92,17.1,1111122 
NERRS,ioos:station:NOAA.NERRS:apaebwq:1,2014-10-11T14:45:00Z,29.7858,-84.8752,1.81,17.2,1111122 
NERRS,ioos:station:NOAA.NERRS:apaebwq:1,2014-10-11T15:45:00Z,29.7858,-84.8752,1.72,17.3,1111122 
NERRS,ioos:station:NOAA.NERRS:apaebwq:1,2014-10-11T16:45:00Z,29.7858,-84.8752,1.66,17.4,1111122 
NERRS,ioos:station:NOAA.NERRS:apaebwq:1,2014-10-11T17:45:00Z,29.7858,-84.8752,1.68,17.4,1111122 
NERRS,ioos:station:NOAA.NERRS:apaebwq:1,2014-10-11T18:45:00Z,29.7858,-84.8752,1.8,17.4,1111122 
NERRS,ioos:station:NOAA.NERRS:apaebwq:1,2014-10-11T19:45:00Z,29.7858,-84.8752,1.97,17.2,1111122 
NERRS,ioos:station:NOAA.NERRS:apaebwq:1,2014-10-11T20:45:00Z,29.7858,-84.8752,2.12,17.4,1111122 
NERRS,ioos:station:NOAA.NERRS:apaebwq:1,2014-10-11T21:45:00Z,29.7858,-84.8752,2.23,17.3,1111122 
NERRS,ioos:station:NOAA.NERRS:apaebwq:1,2014-10-11T22:45:00Z,29.7858,-84.8752,2.31,17.2,1111122 
NERRS,ioos:station:NOAA.NERRS:apaebwq:1,2014-10-11T23:45:00Z,29.7858,-84.8752,2.31,17.3,1111122 
NERRS,ioos:station:NOAA.NERRS:apaebwq:1,2014-10-12T00:45:00Z,29.7858,-84.8752,2.26,17.3,1111122 
NERRS,ioos:station:NOAA.NERRS:apaebwq:1,2014-10-12T01:45:00Z,29.7858,-84.8752,2.18,17.1,1111122 